This demonstration page uses our WeatherBlox Daily Observations layout. Learn more.

Left ArrowRight Arrow

Hourly Observations for May 20, 2019

Temp ( °F °C ) Dew Point ( °F °C ) Humidity (%) Winds ( mph kmh ) Pressure ( in mb ) Visibility ( mi km ) Precip ( " mm )
12:15 am 00:15 Clear 61 16 61 16 100 100 SW 7 11 29.84 1011 10 16.0934 N/A
12:35 am 00:35 Clear 61 16 61 16 100 100 SW 8 13 29.84 1011 10 16.0934 N/A
12:55 am 00:55 Clear 61 16 61 16 100 100 SW 8 13 29.85 1011 10 16.0934 N/A
1:15 am 01:15 Clear 61 16 61 16 100 100 WSW 10 17 29.86 1011 10 16.0934 N/A
1:35 am 01:35 Partly Cloudy 61 16 61 16 100 100 W 10 17 29.87 1012 10 16.0934 N/A
1:55 am 01:55 Partly Cloudy 61 16 61 16 100 100 W 13 20 29.88 1012 10 16.0934 N/A
2:15 am 02:15 Partly Cloudy 61 16 61 16 100 100 WNW 17 28 29.88 1012 10 16.0934 N/A
2:35 am 02:35 Partly Cloudy 59 15 57 14 94 94 WNW 10 17 29.88 1012 10 16.0934 N/A
2:55 am 02:55 Clear 59 15 57 14 94 94 W 9 15 29.89 1012 10 16.0934 N/A
3:15 am 03:15 Clear 59 15 55 13 88 88 W 12 19 29.89 1012 10 16.0934 N/A
3:35 am 03:35 Clear 57 14 55 13 94 94 W 12 19 29.9 1012 10 16.0934 N/A
3:55 am 03:55 Clear 57 14 54 12 88 88 W 13 20 29.9 1012 10 16.0934 N/A
4:15 am 04:15 Clear 55 13 54 12 94 94 W 8 13 29.92 1013 10 16.0934 N/A
4:35 am 04:35 Clear 55 13 54 12 94 94 W 7 11 29.92 1013 10 16.0934 N/A
4:55 am 04:55 Clear 55 13 54 12 94 94 W 8 13 29.92 1013 10 16.0934 N/A
5:15 am 05:15 Clear 55 13 54 12 94 94 W 8 13 29.93 1014 10 16.0934 N/A
5:35 am 05:35 Clear 55 13 54 12 94 94 WNW 9 15 29.93 1014 10 16.0934 N/A
5:55 am 05:55 Partly Cloudy 54 12 54 12 100 100 W 7 11 29.94 1014 10 16.0934 N/A
6:15 am 06:15 Partly Cloudy 52 11 52 11 100 100 W 5 7 29.95 1014 10 16.0934 N/A
6:35 am 06:35 Sunny 52 11 52 11 100 100 W 7 11 29.97 1015 10 16.0934 N/A
6:55 am 06:55 Sunny 52 11 52 11 100 100 W 6 9 29.97 1015 10 16.0934 N/A
7:15 am 07:15 Sunny 54 12 54 12 100 100 WSW 6 9 29.96 1015 10 16.0934 N/A
7:35 am 07:35 Sunny 54 12 54 12 100 100 WSW 7 11 29.98 1015 10 16.0934 N/A
7:55 am 07:55 Sunny 55 13 54 12 94 94 W 10 17 29.98 1015 10 16.0934 N/A
8:15 am 08:15 Sunny 55 13 52 11 88 88 W 13 20 29.99 1016 10 16.0934 N/A
8:35 am 08:35 Mostly Cloudy 57 14 54 12 88 88 W 13 20 29.99 1015 10 16.0934 N/A
8:55 am 08:55 Cloudy 55 13 54 12 94 94 W 13 20 29.99 1016 10 16.0934 N/A
9:15 am 09:15 Cloudy 55 13 52 11 88 88 W 9 15 30 1016 10 16.0934 N/A
9:36 am 09:36 Cloudy 57 14 52 11 82 82 W 12 19 30.01 1016 10 16.0934 N/A
9:55 am 09:55 Cloudy 57 14 52 11 82 82 W 15 24 30.02 1017 10 16.0934 N/A
10:15 am 10:15 Mostly Cloudy 57 14 52 11 82 82 W 17 28 30.02 1017 10 16.0934 N/A
10:35 am 10:35 Mostly Cloudy 59 15 52 11 77 77 WNW 14 22 30.02 1017 10 16.0934 N/A
10:55 am 10:55 Cloudy 57 14 52 11 82 82 W 17 28 30.03 1017 10 16.0934 N/A
11:15 am 11:15 Cloudy 57 14 52 11 82 82 WNW 13 20 30.03 1017 10 16.0934 N/A
11:35 am 11:35 Cloudy 57 14 52 11 82 82 WNW 13 20 30.04 1017 10 16.0934 N/A
11:56 am 11:56 Cloudy 57 14 52 11 82 82 WNW 12 19 30.05 1018 10 16.0934 N/A
12:15 pm 12:15 Cloudy 57 14 52 11 82 82 WNW 13 20 30.06 1018 10 16.0934 N/A
12:35 pm 12:35 Cloudy 57 14 52 11 82 82 WNW 10 17 30.06 1018 10 16.0934 N/A
12:55 pm 12:55 Cloudy 59 15 54 12 82 82 W 10 17 30.05 1018 10 16.0934 N/A
1:15 pm 13:15 Cloudy 59 15 54 12 82 82 W 10 17 30.06 1018 10 16.0934 N/A
1:35 pm 13:35 Cloudy 59 15 54 12 82 82 W 10 17 30.06 1018 10 16.0934 N/A
1:55 pm 13:55 Cloudy 59 15 54 12 82 82 W 10 17 30.06 1018 10 16.0934 N/A
2:15 pm 14:15 Cloudy 59 15 54 12 82 82 WNW 12 19 30.06 1018 10 16.0934 N/A
2:35 pm 14:35 Cloudy 59 15 52 11 77 77 WNW 15 24 30.06 1018 10 16.0934 N/A
2:55 pm 14:55 Cloudy 59 15 52 11 77 77 WNW 12 19 30.06 1018 10 16.0934 N/A
3:15 pm 15:15 Cloudy 59 15 52 11 77 77 WNW 12 19 30.06 1018 10 16.0934 N/A
3:35 pm 15:35 Cloudy 57 14 54 12 88 88 NNW 10 17 30.07 1018 10 16.0934 N/A
3:55 pm 15:55 Cloudy 57 14 54 12 88 88 NW 13 20 30.08 1019 10 16.0934 N/A
4:16 pm 16:16 Cloudy 57 14 52 11 82 82 NNW 9 15 30.09 1019 10 16.0934 N/A
4:35 pm 16:35 Cloudy 55 13 52 11 88 88 NW 12 19 30.09 1019 10 16.0934 N/A
4:56 pm 16:56 Cloudy 57 14 52 11 82 82 WNW 14 22 30.09 1019 10 16.0934 N/A
5:15 pm 17:15 Cloudy 57 14 52 11 82 82 WNW 10 17 30.09 1019 10 16.0934 N/A
5:35 pm 17:35 Cloudy 57 14 52 11 82 82 NW 12 19 30.09 1019 10 16.0934 N/A
5:55 pm 17:55 Cloudy 57 14 50 10 77 77 NW 10 17 30.1 1019 10 16.0934 N/A
6:15 pm 18:15 Cloudy 57 14 50 10 77 77 NW 13 20 30.11 1020 10 16.0934 N/A
6:35 pm 18:35 Cloudy 55 13 50 10 82 82 NW 7 11 30.1 1019 10 16.0934 N/A
6:55 pm 18:55 Cloudy 55 13 50 10 82 82 NNW 10 17 30.11 1020 10 16.0934 N/A
7:15 pm 19:15 Cloudy 55 13 50 10 82 82 NNW 10 17 30.1 1019 10 16.0934 N/A
7:35 pm 19:35 Cloudy 55 13 50 10 82 82 NNW 9 15 30.11 1020 10 16.0934 N/A
7:55 pm 19:55 Cloudy 54 12 50 10 88 88 N 12 19 30.1 1019 10 16.0934 N/A
8:16 pm 20:16 Cloudy 54 12 50 10 88 88 N 10 17 30.11 1020 10 16.0934 N/A
8:35 pm 20:35 Cloudy 52 11 50 10 94 94 N 10 17 30.12 1020 10 16.0934 N/A
8:55 pm 20:55 Cloudy 52 11 48 9 88 88 N 12 19 30.1 1019 10 16.0934 N/A
9:15 pm 21:15 Cloudy 52 11 48 9 88 88 NNE 12 19 30.09 1019 10 16.0934 N/A
9:35 pm 21:35 Cloudy 50 10 46 8 88 88 N 9 15 30.1 1019 10 16.0934 N/A
9:55 pm 21:55 Mostly Cloudy 50 10 48 9 94 94 N 8 13 30.11 1020 10 16.0934 N/A
10:15 pm 22:15 Partly Cloudy 48 9 46 8 94 94 N 9 15 30.12 1020 10 16.0934 N/A
10:36 pm 22:36 Clear 48 9 46 8 94 94 N 8 13 30.12 1020 10 16.0934 N/A
11:15 pm 23:15 Clear 48 9 46 8 94 94 N 7 11 30.13 1020 10 16.0934 N/A
11:35 pm 23:35 Clear 46 8 45 7 93 93 N 6 9 30.15 1021 10 16.0934 N/A
11:55 pm 23:55 Clear 46 8 45 7 93 93 N 7 11 30.14 1021 10 16.0934 N/A

Powered by AerisWeather